EW1390 Weather Reports


Display with metric or nautical units.
time (UTC)temp
F
wind
direction
speed
MPH
gust
MPH
rain 1hr
in
rain 24hr
in
rain mn
in
humidity
%
barometer
mb
20260506044538 51 302 0.0 0.0 0.00 0.14 0.11 91 1010.5
20260506043032 52 302 0.0 0.0 0.00 0.14 0.11 91 1010.3
20260506041537 53 302 0.0 0.0 0.00 0.14 0.11 91 1010.2
20260506040030 53 302 0.0 0.0 0.00 0.14 0.11 91 1010.2
20260506034528 53 302 0.0 0.0 0.00 0.14 0.11 91 1009.9
20260506033026 54 302 0.0 0.0 0.00 0.14 0.11 90 1009.6
20260506031529 54 302 0.0 0.0 0.00 0.14 0.11 89 1009.4
20260506030024 55 302 0.0 0.0 0.00 0.14 0.11 89 1009.2
20260506024535 55 302 0.0 0.0 0.00 0.15 0.11 89 1009.3
20260506023022 55 302 0.0 0.0 0.00 0.15 0.11 88 1009.3
20260506021520 55 302 0.0 1.0 0.00 0.15 0.11 86 1009.1
20260506020021 55 302 0.0 2.0 0.00 0.15 0.11 87 1009.0
20260506014522 55 302 0.0 1.0 0.00 0.15 0.11 87 1009.0
20260506013020 56 302 0.0 0.0 0.00 0.15 0.11 87 1009.0
20260506011541 55 302 0.0 2.0 0.00 0.15 0.11 86 1009.1
20260506010018 55 302 0.0 1.0 0.00 0.15 0.11 88 1009.0
20260506004515 55 303 0.0 2.0 0.00 0.15 0.11 88 1009.0
20260506003017 55 303 0.0 1.0 0.00 0.15 0.11 89 1009.0
20260506001512 54 303 0.0 1.0 0.00 0.15 0.11 90 1009.0
20260506000016 54 303 0.0 1.0 0.00 0.15 0.11 90 1009.0
20260505234529 54 303 0.0 2.0 0.00 0.15 0.11 90 1008.9
20260505233011 54 229 0.0 1.0 0.00 0.15 0.11 89 1008.8
20260505231510 54 229 0.0 0.0 0.00 0.15 0.11 89 1008.8
20260505230010 54 229 0.0 0.0 0.00 0.15 0.11 90 1008.7
20260505224509 54 229 0.0 3.0 0.00 0.15 0.11 90 1008.7
20260505223008 54 210 0.0 1.0 0.00 0.15 0.11 90 1008.8
20260505221507 54 210 0.0 0.0 0.00 0.15 0.11 91 1008.8
20260505220005 54 210 0.0 0.0 0.00 0.15 0.11 91 1008.9
20260505214509 54 210 0.0 1.0 0.00 0.19 0.11 91 1008.9
20260505213004 54 210 0.0 1.0 0.00 0.19 0.11 91 1009.0
20260505211503 53 210 0.0 1.0 0.00 0.19 0.11 90 1009.1
20260505210002 54 210 0.0 1.0 0.00 0.19 0.11 91 1009.0
20260505204501 54 210 0.0 3.0 0.00 0.19 0.11 92 1009.0
20260505203112 53 207 0.0 0.0 0.00 0.19 0.11 92 1008.9
20260505201558 53 207 0.0 2.0 0.00 0.19 0.11 92 1008.9
20260505200058 53 207 0.0 3.0 0.00 0.19 0.11 93 1009.0
20260505194617 53 207 0.0 0.0 0.00 0.20 0.11 94 1009.0
20260505193054 52 235 0.0 0.0 0.00 0.20 0.11 95 1009.2
20260505191605 52 235 0.0 2.0 0.00 0.20 0.11 95 1008.9
20260505190052 51 235 0.0 4.0 0.00 0.20 0.11 95 1009.0
20260505184549 51 205 0.0 3.0 0.00 0.20 0.11 95 1008.7
20260505183053 52 203 0.0 2.0 0.00 0.20 0.11 96 1008.8
20260505181547 51 203 0.0 3.0 0.00 0.20 0.11 96 1008.7
20260505180048 51 171 0.0 0.0 0.00 0.20 0.11 96 1008.5
20260505174541 50 171 0.0 2.0 0.00 0.20 0.11 96 1008.5
20260505173037 50 259 0.0 2.0 0.00 0.20 0.11 96 1008.2
20260505171533 50 273 0.0 4.0 0.00 0.20 0.11 96 1008.2
20260505170031 50 243 0.0 4.0 0.00 0.20 0.11 96 1008.3
20260505164527 50 243 0.0 2.0 0.00 0.21 0.11 96 1008.0
20260505163024 49 243 0.0 2.0 0.01 0.21 0.11 96 1008.2
20260505161519 49 243 0.0 1.0 0.02 0.21 0.11 96 1008.2
20260505153011 49 243 0.0 0.0 0.02 0.20 0.10 96 1008.0
20260505151512 49 243 0.0 0.0 0.00 0.18 0.08 96 1008.0
20260505124503 48 243 0.0 0.0 0.00 0.26 0.06 96 1007.5
20260505123001 48 243 0.0 0.0 0.00 0.26 0.06 96 1007.2
20260505121627 48 243 0.0 0.0 0.00 0.26 0.06 96 1007.2
20260505120059 48 243 0.0 0.0 0.00 0.26 0.06 96 1007.1
20260505114600 48 243 0.0 0.0 0.00 0.26 0.06 96 1007.1
20260505113102 48 243 0.0 0.0 0.01 0.26 0.06 96 1007.2
20260505111556 48 243 0.0 0.0 0.01 0.26 0.06 96 1007.5
20260505101550 48 243 0.0 0.0 0.00 0.25 0.05 95 1007.6
20260505100123 48 243 0.0 1.0 0.00 0.25 0.05 95 1007.6
20260505094548 48 243 0.0 2.0 0.01 0.25 0.05 95 1007.6
20260505093052 48 243 0.0 1.0 0.01 0.25 0.05 95 1007.6
20260505091608 48 243 0.0 2.0 0.02 0.25 0.05 95 1007.8
20260505090057 48 243 0.0 2.0 0.03 0.25 0.05 95 1007.9
20260505084546 48 243 0.0 1.0 0.02 0.24 0.04 95 1007.9
20260505083049 48 243 0.0 0.0 0.02 0.24 0.04 95 1008.0
20260505081545 48 243 0.0 0.0 0.02 0.23 0.03 95 1008.0
20260505080048 48 243 0.0 0.0 0.02 0.22 0.02 95 1008.0
20260505074542 48 243 0.0 0.0 0.02 0.22 0.02 95 1008.0
20260505073052 48 243 0.0 0.0 0.04 0.22 0.02 95 1007.9
20260505071542 48 243 0.0 0.0 0.03 0.21 0.01 95 1008.0
20260505070037 49 243 0.0 0.0 0.02 0.20 0.00 95 1007.9
20260505064534 49 243 0.0 0.0 0.02 0.19 0.19 95 1007.9
20260505063044 49 243 0.0 0.0 0.01 0.18 0.18 95 1007.8
20260505061536 49 243 0.0 2.0 0.01 0.18 0.18 95 1007.9
20260505060033 49 243 0.0 0.0 0.00 0.17 0.17 95 1007.9